When you browse on this site, cookies collect data to enhance your experience and personalize the content and advertising you see.
Visit our Privacy Policy to learn more. By continuing to use the site, you agree to this use of cookies and data.
  • En España
  • Lista de países
  • Para 7 días
  • Temperatura del agua
  • Mapa Satelital
  • El tiempo en el mapa
  • Informadores
  • user-avatar
    Iniciar sesión

    Tiempo cada hora Cross River

    Hoy, 19 Marzo, Martes

    Tiempo Temperatura Precipitaciones Viento Presión Humedad
    00:00 +31°C° 0 mm 2 mps 750 mmHg 65%
    01:00 +31°C° 0 mm 2 mps 750 mmHg 69%
    02:00 +30°C° 0.1 mm 2 mps 750 mmHg 71%
    03:00 +30°C° 0.1 mm 2 mps 750 mmHg 74%
    04:00 +29°C° 0.1 mm 2 mps 750 mmHg 76%
    05:00 +29°C° 0 mm 2 mps 750 mmHg 77%
    06:00 +29°C° 0 mm 1 mps 750 mmHg 78%
    07:00 +29°C° 0 mm 1 mps 750 mmHg 77%
    08:00 +31°C° 0 mm 1 mps 750 mmHg 68%
    09:00 +34°C° 0 mm 2 mps 751 mmHg 59%
    10:00 +36°C° 0 mm 2 mps 751 mmHg 50%
    11:00 +39°C° 0 mm 2 mps 750 mmHg 44%
    12:00 +41°C° 0 mm 1 mps 750 mmHg 38%
    13:00 +40°C° 0 mm 1 mps 749 mmHg 36%
    14:00 +40°C° 0 mm 1 mps 748 mmHg 38%
    15:00 +39°C° 0 mm 2 mps 748 mmHg 40%
    16:00 +39°C° 0 mm 2 mps 747 mmHg 41%
    17:00 +38°C° 0.3 mm 2 mps 748 mmHg 46%
    18:00 +36°C° 0.3 mm 2 mps 748 mmHg 51%
    19:00 +35°C° 0.3 mm 2 mps 748 mmHg 56%
    20:00 +34°C° 1.3 mm 2 mps 749 mmHg 62%
    21:00 +31°C° 1.3 mm 2 mps 750 mmHg 69%
    22:00 +30°C° 1.3 mm 2 mps 750 mmHg 76%
    23:00 +30°C° 0.1 mm 2 mps 750 mmHg 77%

    Mañana, 20 Marzo, Miércoles

    Tiempo Temperatura Precipitaciones Viento Presión Humedad
    00:00 +29°C° 0.1 mm 2 mps 750 mmHg 77%
    01:00 +29°C° 0.1 mm 2 mps 751 mmHg 78%
    02:00 +29°C° 0 mm 2 mps 750 mmHg 80%
    03:00 +28°C° 0 mm 1 mps 750 mmHg 81%
    04:00 +28°C° 0 mm 1 mps 749 mmHg 82%
    05:00 +28°C° 0.6 mm 1 mps 750 mmHg 84%
    06:00 +28°C° 0.6 mm 1 mps 750 mmHg 85%
    07:00 +27°C° 0.6 mm 1 mps 750 mmHg 86%
    08:00 +30°C° 0 mm 1 mps 751 mmHg 76%
    09:00 +32°C° 0 mm 1 mps 751 mmHg 66%
    10:00 +35°C° 0 mm 2 mps 751 mmHg 56%
    11:00 +37°C° 0 mm 2 mps 751 mmHg 50%
    12:00 +39°C° 0 mm 2 mps 750 mmHg 44%
    13:00 +40°C° 0 mm 2 mps 749 mmHg 38%
    14:00 +41°C° 0 mm 2 mps 749 mmHg 36%
    15:00 +41°C° 0 mm 2 mps 748 mmHg 35%
    16:00 +41°C° 0 mm 2 mps 747 mmHg 33%
    17:00 +39°C° 0 mm 2 mps 748 mmHg 38%
    18:00 +38°C° 0 mm 2 mps 748 mmHg 44%
    19:00 +36°C° 0 mm 2 mps 748 mmHg 49%
    20:00 +34°C° 0.7 mm 2 mps 749 mmHg 57%
    21:00 +33°C° 0.7 mm 3 mps 750 mmHg 65%
    22:00 +30°C° 0.7 mm 3 mps 751 mmHg 73%
    23:00 +30°C° 0 mm 3 mps 750 mmHg 74%

    Pasado mañana, 21 Marzo, Jueves

    Tiempo Temperatura Precipitaciones Viento Presión Humedad
    00:00 +30°C° 0 mm 2 mps 750 mmHg 76%
    01:00 +29°C° 0 mm 2 mps 750 mmHg 77%
    02:00 +29°C° 0.1 mm 2 mps 750 mmHg 78%
    03:00 +29°C° 0.1 mm 2 mps 750 mmHg 80%
    04:00 +28°C° 0.1 mm 1 mps 750 mmHg 81%
    05:00 +28°C° 0.1 mm 1 mps 750 mmHg 82%
    06:00 +28°C° 0.1 mm 1 mps 750 mmHg 82%
    07:00 +28°C° 0.1 mm 1 mps 751 mmHg 83%
    08:00 +30°C° 0 mm 1 mps 751 mmHg 74%
    09:00 +32°C° 0 mm 1 mps 751 mmHg 64%
    10:00 +35°C° 0 mm 2 mps 752 mmHg 55%
    11:00 +37°C° 0 mm 2 mps 751 mmHg 49%
    12:00 +39°C° 0 mm 2 mps 750 mmHg 44%
    13:00 +40°C° 0 mm 2 mps 749 mmHg 38%
    14:00 +41°C° 0 mm 2 mps 748 mmHg 37%
    15:00 +41°C° 0 mm 2 mps 747 mmHg 35%
    16:00 +41°C° 0 mm 2 mps 747 mmHg 34%
    17:00 +40°C° 0 mm 2 mps 747 mmHg 38%
    18:00 +37°C° 0 mm 1 mps 747 mmHg 41%
    19:00 +36°C° 0 mm 1 mps 747 mmHg 45%
    20:00 +35°C° 0.8 mm 2 mps 748 mmHg 55%
    21:00 +32°C° 0.8 mm 2 mps 749 mmHg 66%
    22:00 +30°C° 0.8 mm 3 mps 750 mmHg 77%
    23:00 +29°C° 0.9 mm 3 mps 750 mmHg 79%

    22 Marzo, Viernes

    Tiempo Temperatura Precipitaciones Viento Presión Humedad
    00:00 +29°C° 0.9 mm 3 mps 750 mmHg 81%
    01:00 +28°C° 0.9 mm 2 mps 750 mmHg 84%
    02:00 +28°C° 0.1 mm 2 mps 750 mmHg 85%
    03:00 +28°C° 0.1 mm 2 mps 749 mmHg 85%
    04:00 +28°C° 0.1 mm 2 mps 749 mmHg 86%
    05:00 +28°C° 0 mm 2 mps 750 mmHg 87%
    06:00 +28°C° 0 mm 1 mps 750 mmHg 87%
    07:00 +28°C° 0 mm 1 mps 751 mmHg 88%
    08:00 +30°C° 0 mm 1 mps 751 mmHg 78%
    09:00 +32°C° 0 mm 2 mps 752 mmHg 68%
    10:00 +35°C° 0 mm 2 mps 752 mmHg 58%
    11:00 +36°C° 0 mm 2 mps 751 mmHg 54%
    12:00 +38°C° 0 mm 2 mps 750 mmHg 49%
    13:00 +39°C° 0 mm 3 mps 749 mmHg 44%
    14:00 +39°C° 0 mm 3 mps 749 mmHg 45%
    15:00 +38°C° 0 mm 3 mps 748 mmHg 45%
    16:00 +38°C° 0 mm 2 mps 748 mmHg 46%
    17:00 +37°C° 0 mm 2 mps 748 mmHg 49%
    18:00 +36°C° 0 mm 2 mps 748 mmHg 52%
    19:00 +35°C° 0 mm 2 mps 748 mmHg 55%
    20:00 +34°C° 0.7 mm 2 mps 749 mmHg 62%
    21:00 +31°C° 0.7 mm 2 mps 750 mmHg 69%
    22:00 +30°C° 0.7 mm 2 mps 751 mmHg 77%
    23:00 +30°C° 0.7 mm 2 mps 751 mmHg 79%

    23 Marzo, Sábado

    Tiempo Temperatura Precipitaciones Viento Presión Humedad
    00:00 +29°C° 0.7 mm 1 mps 751 mmHg 82%
    01:00 +29°C° 0.7 mm 1 mps 751 mmHg 85%
    02:00 +28°C° 0 mm 1 mps 750 mmHg 86%
    03:00 +28°C° 0 mm 1 mps 750 mmHg 86%
    04:00 +28°C° 0 mm 2 mps 749 mmHg 87%
    05:00 +28°C° 0 mm 1 mps 750 mmHg 87%
    06:00 +28°C° 0 mm 1 mps 750 mmHg 87%
    07:00 +28°C° 0 mm 1 mps 751 mmHg 87%
    08:00 +29°C° 0 mm 1 mps 751 mmHg 79%
    09:00 +31°C° 0 mm 2 mps 752 mmHg 71%
    10:00 +34°C° 0 mm 2 mps 752 mmHg 62%
    11:00 +36°C° 0 mm 2 mps 751 mmHg 56%
    12:00 +37°C° 0 mm 2 mps 751 mmHg 50%
    13:00 +39°C° 0 mm 2 mps 750 mmHg 43%
    14:00 +39°C° 0 mm 2 mps 749 mmHg 42%
    15:00 +40°C° 0 mm 2 mps 749 mmHg 40%
    16:00 +40°C° 0 mm 2 mps 748 mmHg 39%
    17:00 +38°C° 0 mm 2 mps 748 mmHg 44%
    18:00 +37°C° 0 mm 2 mps 749 mmHg 50%
    19:00 +35°C° 0 mm 2 mps 749 mmHg 56%
    20:00 +34°C° 0.8 mm 2 mps 750 mmHg 62%
    21:00 +31°C° 0.8 mm 2 mps 750 mmHg 69%
    22:00 +30°C° 0.8 mm 2 mps 750 mmHg 76%
    23:00 +29°C° 0 mm 2 mps 750 mmHg 78%

    24 Marzo, Domingo

    Tiempo Temperatura Precipitaciones Viento Presión Humedad
    00:00 +29°C° 0 mm 2 mps 750 mmHg 79%
    01:00 +29°C° 0 mm 2 mps 750 mmHg 80%
    02:00 +29°C° 0 mm 2 mps 750 mmHg 80%
    03:00 +29°C° 0 mm 2 mps 750 mmHg 81%
    04:00 +28°C° 0 mm 2 mps 749 mmHg 81%
    05:00 +28°C° 0 mm 1 mps 750 mmHg 81%
    06:00 +28°C° 0 mm 1 mps 750 mmHg 81%
    07:00 +28°C° 0 mm 1 mps 751 mmHg 81%
    08:00 +30°C° 0 mm 1 mps 751 mmHg 75%
    09:00 +31°C° 0 mm 1 mps 751 mmHg 69%
    10:00 +32°C° 0 mm 1 mps 752 mmHg 63%
    11:00 +35°C° 0 mm 2 mps 751 mmHg 57%
    12:00 +36°C° 0 mm 2 mps 750 mmHg 51%
    13:00 +38°C° 0 mm 2 mps 750 mmHg 45%
    14:00 +38°C° 0 mm 2 mps 749 mmHg 44%
    15:00 +39°C° 0 mm 2 mps 748 mmHg 43%
    16:00 +39°C° 0 mm 2 mps 748 mmHg 42%
    17:00 +38°C° 0 mm 2 mps 748 mmHg 46%
    18:00 +36°C° 0 mm 2 mps 749 mmHg 50%
    19:00 +34°C° 0 mm 1 mps 749 mmHg 54%
    20:00 +32°C° 1.2 mm 2 mps 749 mmHg 63%
    21:00 +31°C° 1.2 mm 2 mps 750 mmHg 72%
    22:00 +29°C° 1.2 mm 2 mps 750 mmHg 81%
    23:00 +29°C° 0 mm 2 mps 750 mmHg 82%
    Mostrar más